Dades meteomassalio
Diari Summary for Setembre 25, 2017 Units:  Metric    English   Both
« Previous Day
Next Day »
Diari Semanal Mensual Anual Personalitzat
  Maxima: Minima: Mijana:
Temperatura: -17.8 °C -12.2 °C -7.4 °C
Rosada: -17.8 °C -15.8 °C -12.1 °C
Humitat: Humidity % 37 % 60 %
Velocitat del vent: 0 km/h 0 km/h 23.8 km/h
Racha vent: 0 km/h - -
Vent:- - SW
Pressio: 0 hPa 34476.3 hPa -
Pluja: 0 mm    
Historical Graphs
 
 
Tabular Data for Setembre 25, 2017
Time Temperature Dew Point Pressure Wind Wind Speed Wind Gust Humidity Rainfall Rate (Hourly) solar Conditions
-17.8 °C -17.8 °C 0 hPa Calm     Humidity % 0 mm SolarRadiationWatts/m^2 W/m2 Conditions
00:04 -9.4 °C -12.8 °C 34533.8 hPa Calm     67 % 0 mm 0.0 W/m2 CLR
00:09 -9.4 °C -12.8 °C 34533.8 hPa Calm     67 % 0 mm 0.0 W/m2 CLR
00:14 -9.4 °C -12.9 °C 34533.8 hPa Calm     66 % 0 mm 0.0 W/m2 CLR
00:19 -9.4 °C -12.8 °C 34533.8 hPa Calm     67 % 0 mm 0.0 W/m2 CLR
00:24 -9.8 °C -13 °C 34533.8 hPa Calm     68 % 0 mm 0.0 W/m2 CLR
00:29 -9.8 °C -12.9 °C 34533.8 hPa Calm     69 % 0 mm 0.0 W/m2 CLR
00:34 -9.8 °C -12.9 °C 34533.8 hPa Calm     69 % 0 mm 0.0 W/m2 CLR
00:39 -9.8 °C -12.7 °C 34533.8 hPa Calm     70 % 0 mm 0.0 W/m2 CLR
00:44 -10.1 °C -13.2 °C 34533.8 hPa Calm     69 % 0 mm 0.0 W/m2 CLR
00:49 -10.1 °C -13.2 °C 34520.3 hPa Calm     69 % 0 mm 0.0 W/m2 CLR
00:54 -10.1 °C -13.2 °C 34520.3 hPa Calm     69 % 0 mm 0.0 W/m2 CLR
00:59 -10.1 °C -13.2 °C 34520.3 hPa Calm     69 % 0 mm 0.0 W/m2 CLR
01:04 -10.1 °C -13.1 °C 34533.8 hPa Calm     70 % 0 mm 0.0 W/m2 CLR
01:09 -10.4 °C -13.3 °C 34520.3 hPa Calm     70 % 0 mm 0.0 W/m2 CLR
01:14 -10.4 °C -13.3 °C 34520.3 hPa Calm     70 % 0 mm 0.0 W/m2 CLR
01:19 -10.4 °C -13.2 °C 34520.3 hPa Calm     71 % 0 mm 0.0 W/m2 CLR
01:24 -10.4 °C -13.2 °C 34520.3 hPa Calm     71 % 0 mm 0.0 W/m2 CLR
01:29 -10.4 °C -13.1 °C 34520.3 hPa Calm     72 % 0 mm 0.0 W/m2 CLR
01:34 -10.4 °C -13.1 °C 34520.3 hPa Calm     72 % 0 mm 0.0 W/m2 CLR
01:39 -10.4 °C -13.1 °C 34520.3 hPa Calm     72 % 0 mm 0.0 W/m2 CLR
01:44 -10.7 °C -13.4 °C 34520.3 hPa Calm     72 % 0 mm 0.0 W/m2 CLR
01:49 -10.7 °C -13.3 °C 34520.3 hPa Calm     73 % 0 mm 0.0 W/m2 CLR
01:54 -10.7 °C -13.4 °C 34520.3 hPa Calm     72 % 0 mm 0.0 W/m2 CLR
01:59 -10.7 °C -13.3 °C 34520.3 hPa Calm     73 % 0 mm 0.0 W/m2 CLR
02:04 -10.7 °C -13.3 °C 34510.1 hPa Calm     73 % 0 mm 0.0 W/m2 CLR
02:09 -10.7 °C -13.3 °C 34510.1 hPa Calm     73 % 0 mm 0.0 W/m2 CLR
02:14 -10.7 °C -13.3 °C 34520.3 hPa Calm     73 % 0 mm 0.0 W/m2 CLR
02:19 -10.7 °C -13.3 °C 34520.3 hPa Calm     73 % 0 mm 0.0 W/m2 CLR
02:24 -11 °C -13.5 °C 34510.1 hPa Calm     74 % 0 mm 0.0 W/m2 CLR
02:29 -11 °C -13.5 °C 34510.1 hPa Calm     74 % 0 mm 0.0 W/m2 CLR
02:34 -11 °C -13.5 °C 34510.1 hPa Calm     74 % 0 mm 0.0 W/m2 CLR
02:40 -11 °C -13.5 °C 34510.1 hPa Calm     74 % 0 mm 0.0 W/m2 CLR
02:45 -11 °C -13.5 °C 34510.1 hPa Calm     74 % 0 mm 0.0 W/m2 CLR
02:50 -11 °C -13.4 °C 34510.1 hPa Calm     75 % 0 mm 0.0 W/m2 CLR
02:55 -11 °C -13.4 °C 34510.1 hPa Calm     75 % 0 mm 0.0 W/m2 CLR
03:00 -11 °C -13.4 °C 34510.1 hPa Calm     75 % 0 mm 0.0 W/m2 CLR
03:05 -11 °C -13.4 °C 34510.1 hPa Calm     75 % 0 mm 0.0 W/m2 CLR
03:10 -11 °C -13.4 °C 34510.1 hPa Calm     75 % 0 mm 0.0 W/m2 CLR
03:15 -11 °C -13.4 °C 34496.6 hPa Calm     75 % 0 mm 0.0 W/m2 CLR
03:20 -11 °C -13.4 °C 34496.6 hPa Calm     75 % 0 mm 0.0 W/m2 CLR
03:25 -11 °C -13.4 °C 34496.6 hPa Calm     75 % 0 mm 0.0 W/m2 CLR
03:30 -11 °C -13.3 °C 34496.6 hPa Calm     76 % 0 mm 0.0 W/m2 CLR
03:35 -11.3 °C -13.6 °C 34496.6 hPa Calm     76 % 0 mm 0.0 W/m2 CLR
03:40 -11.3 °C -13.6 °C 34496.6 hPa Calm     76 % 0 mm 0.0 W/m2 CLR
03:45 -11.3 °C -13.6 °C 34496.6 hPa Calm     76 % 0 mm 0.0 W/m2 CLR
03:50 -11.3 °C -13.6 °C 34496.6 hPa Calm     76 % 0 mm 0.0 W/m2 CLR
03:55 -11.6 °C -13.8 °C 34496.6 hPa Calm     76 % 0 mm 0.0 W/m2 CLR
04:00 -11.6 °C -13.8 °C 34496.6 hPa Calm     76 % 0 mm 0.0 W/m2 CLR
04:05 -11.6 °C -13.8 °C 34486.4 hPa Calm     77 % 0 mm 0.0 W/m2 CLR
04:10 -11.6 °C -13.8 °C 34486.4 hPa Calm     77 % 0 mm 0.0 W/m2 CLR
04:16 -11.6 °C -13.7 °C 34486.4 hPa Calm     78 % 0 mm 0.0 W/m2 CLR
04:21 -11.6 °C -13.7 °C 34486.4 hPa Calm     78 % 0 mm 0.0 W/m2 CLR
04:26 -11.9 °C -13.9 °C 34486.4 hPa Calm     78 % 0 mm 0.0 W/m2 CLR
04:31 -11.9 °C -14.1 °C 34486.4 hPa Calm     77 % 0 mm 0.0 W/m2 CLR
04:32 -11.9 °C -14.1 °C 34486.4 hPa Calm     77 % 0 mm 0.0 W/m2 CLR
04:37 -11.9 °C -14.1 °C 34486.4 hPa Calm     77 % 0 mm 0.0 W/m2 CLR
04:42 -11.9 °C -13.9 °C 34486.4 hPa Calm     78 % 0 mm 0.0 W/m2 CLR
04:47 -11.9 °C -13.9 °C 34486.4 hPa Calm     78 % 0 mm 0.0 W/m2 CLR
04:52 -11.9 °C -13.9 °C 34486.4 hPa Calm     78 % 0 mm 0.0 W/m2 CLR
04:57 -12.2 °C -14.3 °C 34486.4 hPa Calm     77 % 0 mm 0.0 W/m2 CLR
05:02 -12.2 °C -14.3 °C 34486.4 hPa Calm     77 % 0 mm 0.0 W/m2 CLR
05:07 -12.2 °C -14.3 °C 34476.3 hPa Calm     78 % 0 mm 0.0 W/m2 CLR
05:18 -12.2 °C -14.2 °C 34476.3 hPa Calm     79 % 0 mm 0.0 W/m2 CLR
05:21 -12.2 °C -14.2 °C 34476.3 hPa Calm     79 % 0 mm 0.0 W/m2 CLR
05:22 -12.2 °C -14.2 °C 34476.3 hPa Calm     79 % 0 mm 0.0 W/m2 CLR
05:26 -12.2 °C -14.2 °C 34476.3 hPa Calm     79 % 0 mm 0.0 W/m2 CLR
05:27 -12.2 °C -14.2 °C 34476.3 hPa Calm     79 % 0 mm 0.0 W/m2 CLR
05:32 -12.2 °C -14.2 °C 34476.3 hPa Calm     79 % 0 mm 0.0 W/m2 CLR
05:37 -12.2 °C -14.2 °C 34476.3 hPa Calm     79 % 0 mm 0.0 W/m2 CLR
05:42 -12.2 °C -14.1 °C 34476.3 hPa Calm     80 % 0 mm 0.0 W/m2 CLR
05:47 -12.2 °C -14.1 °C 34476.3 hPa Calm     80 % 0 mm 0.0 W/m2 CLR
05:52 -12.2 °C -14.2 °C 34476.3 hPa Calm     79 % 0 mm 0.0 W/m2 CLR
05:57 -12.2 °C -14.1 °C 34476.3 hPa Calm     80 % 0 mm 0.0 W/m2 CLR
06:02 -12.2 °C -14.1 °C 34476.3 hPa Calm     80 % 0 mm 0.0 W/m2 CLR
06:12 -12.2 °C -14.1 °C 34476.3 hPa Calm     80 % 0 mm 0.0 W/m2 CLR
06:17 -12.2 °C -14.1 °C 34476.3 hPa Calm     80 % 0 mm 0.0 W/m2 CLR
06:22 -12.2 °C -14.1 °C 34476.3 hPa Calm     80 % 0 mm 0.0 W/m2 CLR
06:27 -12.2 °C -14.1 °C 34476.3 hPa Calm     80 % 0 mm 0.0 W/m2 CLR
06:32 -12.2 °C -14.1 °C 34476.3 hPa Calm     80 % 0 mm 0.0 W/m2 CLR
06:37 -12.2 °C -13.9 °C 34486.4 hPa Calm     81 % 0 mm 0.0 W/m2 CLR
06:42 -12.2 °C -14.1 °C 34486.4 hPa Calm     80 % 0 mm 0.0 W/m2 CLR
06:47 -12.2 °C -13.9 °C 34486.4 hPa Calm     81 % 0 mm 0.0 W/m2 CLR
06:52 -12.2 °C -13.9 °C 34486.4 hPa Calm     81 % 0 mm 0.0 W/m2 CLR
06:57 -11.9 °C -13.7 °C 34486.4 hPa Calm     81 % 0 mm 0.0 W/m2 CLR
07:02 -11.9 °C -13.7 °C 34486.4 hPa Calm     81 % 0 mm 0.0 W/m2 CLR
07:07 -11.9 °C -13.8 °C 34486.4 hPa Calm     80 % 0 mm 0.0 W/m2 CLR
07:12 -11.9 °C -13.8 °C 34486.4 hPa Calm     79 % 0 mm 0.0 W/m2 CLR
07:17 -11.6 °C -13.6 °C 34486.4 hPa Calm     79 % 0 mm 0.0 W/m2 CLR
07:22 -11.6 °C -13.6 °C 34486.4 hPa Calm     79 % 0 mm 0.0 W/m2 CLR
07:27 -11.6 °C -13.4 °C 34486.4 hPa Calm     80 % 0 mm 0.0 W/m2 CLR
07:32 -11.6 °C -13.4 °C 34496.6 hPa Calm     80 % 0 mm 0.0 W/m2 CLR
07:37 -11.6 °C -13.4 °C 34496.6 hPa Calm     80 % 0 mm 0.0 W/m2 CLR
07:42 -11.6 °C -13.4 °C 34496.6 hPa Calm     80 % 0 mm 0.0 W/m2 OVC
07:47 -11.6 °C -13.4 °C 34510.1 hPa Calm     80 % 0 mm 0.0 W/m2 OVC
07:52 -11.6 °C -13.6 °C 34510.1 hPa Calm     79 % 0 mm 0.0 W/m2 OVC
07:57 -11.6 °C -13.7 °C 34510.1 hPa SSW 26.9 km/h 26.9 km/h 78 % 0 mm 0.0 W/m2 OVC
08:02 -11.6 °C -14.9 °C 34496.6 hPa SSW 29.8 km/h 29.8 km/h 67 % 0 mm 5.0 W/m2 OVC
08:07 -11.6 °C -15.8 °C 34510.1 hPa SSW 26.9 km/h 26.9 km/h 60 % 0 mm 9.0 W/m2 BKN
08:12 -11.3 °C -15.6 °C 34510.1 hPa SSW 29.8 km/h 29.8 km/h 59 % 0 mm 11.0 W/m2 BKN
08:17 -11 °C -15.2 °C 34510.1 hPa SSW 25.9 km/h 25.9 km/h 60 % 0 mm 18.0 W/m2 BKN
08:23 -10.4 °C -14.5 °C 34510.1 hPa WSW 15.6 km/h 15.6 km/h 61 % 0 mm 26.0 W/m2 BKN
08:28 -10.1 °C -13.8 °C 34520.3 hPa WSW 18.2 km/h 18.2 km/h 64 % 0 mm 25.0 W/m2 BKN
08:33 -10.1 °C -13.6 °C 34520.3 hPa SW 9 km/h 9 km/h 66 % 0 mm 30.0 W/m2 BKN
08:38 -10.1 °C -13.2 °C 34520.3 hPa SSW 15 km/h 15 km/h 69 % 0 mm 35.0 W/m2 BKN
08:43 -10.1 °C -13.1 °C 34520.3 hPa SSW 3.1 km/h 3.1 km/h 70 % 0 mm 44.0 W/m2 BKN
08:48 -9.8 °C -12.4 °C 34533.8 hPa SW 10.3 km/h 10.3 km/h 73 % 0 mm 60.0 W/m2 SCT
08:53 -9.8 °C -12.3 °C 34533.8 hPa SW 9 km/h 9 km/h 74 % 0 mm 81.0 W/m2 SCT
08:58 -9.4 °C -11.9 °C 34520.3 hPa Calm     75 % 0 mm 144.0 W/m2 FEW
09:03 -9.1 °C -11.6 °C 34533.8 hPa SSW 9 km/h 9 km/h 75 % 0 mm 186.0 W/m2 CLR
09:08 -8.2 °C -10.8 °C 34533.8 hPa SSW 15.6 km/h 15.6 km/h 74 % 0 mm 167.0 W/m2 CLR
09:13 -7.9 °C -10.5 °C 34533.8 hPa SSW 17.9 km/h 17.9 km/h 74 % 0 mm 84.0 W/m2 CLR
09:18 -7.9 °C -10.5 °C 34533.8 hPa SW 11.9 km/h 11.9 km/h 74 % 0 mm 109.0 W/m2 CLR
09:23 -7.6 °C -10.2 °C 34533.8 hPa Calm     74 % 0 mm 113.0 W/m2 CLR
09:28 -7.6 °C -10.3 °C 34533.8 hPa South 6 km/h 6 km/h 73 % 0 mm 225.0 W/m2 CLR
09:33 -7.6 °C -10.3 °C 34544 hPa Calm     73 % 0 mm 114.0 W/m2 CLR
09:38 -7.6 °C -10.3 °C 34544 hPa Calm     73 % 0 mm 301.0 W/m2 CLR
09:43 -7.3 °C -10.2 °C 34544 hPa Calm     72 % 0 mm 100.0 W/m2 CLR
09:48 -7.3 °C -10.2 °C 34544 hPa SSW 23.3 km/h 23.3 km/h 72 % 0 mm 352.0 W/m2 CLR
09:53 -7.3 °C -10.4 °C 34544 hPa South 10.3 km/h 10.3 km/h 70 % 0 mm 399.0 W/m2 CLR
09:58 -7 °C -10.3 °C 34544 hPa South 20.9 km/h 20.9 km/h 68 % 0 mm 410.0 W/m2 CLR
10:03 -6.7 °C -10.2 °C 34544 hPa WSW 25.9 km/h 25.9 km/h 67 % 0 mm 149.0 W/m2 CLR
10:08 -6.7 °C -10.3 °C 34544 hPa SW 18.2 km/h 18.2 km/h 66 % 0 mm 186.0 W/m2 CLR
10:13 -6.3 °C -10 °C 34554.1 hPa SW 25.9 km/h 25.9 km/h 66 % 0 mm 457.0 W/m2 CLR
10:18 -6.3 °C -10 °C 34554.1 hPa SSW 23.8 km/h 23.8 km/h 66 % 0 mm 322.0 W/m2 CLR
10:23 -6.3 °C -10 °C 34554.1 hPa SSW 32.8 km/h 32.8 km/h 66 % 0 mm 531.0 W/m2 CLR
10:28 -6.1 °C -9.7 °C 34554.1 hPa SW 32.8 km/h 32.8 km/h 66 % 0 mm 230.0 W/m2 CLR
10:33 -6.1 °C -9.7 °C 34554.1 hPa West 29.8 km/h 29.8 km/h 66 % 0 mm 538.0 W/m2 CLR
10:38 -6.1 °C -9.7 °C 34554.1 hPa SW 23.8 km/h 23.8 km/h 66 % 0 mm 332.0 W/m2 CLR
10:43 -6.1 °C -9.8 °C 34554.1 hPa SSW 20.9 km/h 20.9 km/h 65 % 0 mm 348.0 W/m2 CLR
10:48 -6.1 °C -9.9 °C 34554.1 hPa SW 12.9 km/h 12.9 km/h 64 % 0 mm 264.0 W/m2 CLR
10:53 -5.7 °C -9.8 °C 34554.1 hPa WSW 20.9 km/h 20.9 km/h 63 % 0 mm 220.0 W/m2 CLR
10:58 -5.7 °C -9.9 °C 34554.1 hPa SW 15.6 km/h 15.6 km/h 62 % 0 mm 186.0 W/m2 CLR
11:03 -5.7 °C -9.9 °C 34554.1 hPa SSW 17.9 km/h 17.9 km/h 62 % 0 mm 132.0 W/m2 CLR
11:09 -6.1 °C -10.1 °C 34554.1 hPa SSW 20.9 km/h 20.9 km/h 63 % 0 mm 591.0 W/m2 CLR
11:14 -6.1 °C -9.9 °C 34544 hPa South 15.6 km/h 15.6 km/h 64 % 0 mm 589.0 W/m2 CLR
11:19 -6.1 °C -9.9 °C 34554.1 hPa South 26.9 km/h 26.9 km/h 64 % 0 mm 171.0 W/m2 CLR
11:24 -5.7 °C -9.7 °C 34554.1 hPa SSW 28.5 km/h 28.5 km/h 64 % 0 mm 207.0 W/m2 CLR
11:29 -5.7 °C -9.8 °C 34544 hPa SSW 35.7 km/h 35.7 km/h 63 % 0 mm 598.0 W/m2 CLR
11:34 -5.4 °C -9.6 °C 34544 hPa SSW 23.8 km/h 23.8 km/h 63 % 0 mm 638.0 W/m2 CLR
11:39 -5.1 °C -9.2 °C 34544 hPa SW 23.8 km/h 23.8 km/h 63 % 0 mm 628.0 W/m2 CLR
11:44 -5.1 °C -9.4 °C 34544 hPa SW 20.9 km/h 20.9 km/h 62 % 0 mm 603.0 W/m2 CLR
11:49 -4.8 °C -9.4 °C 34544 hPa SW 26.9 km/h 26.9 km/h 60 % 0 mm 596.0 W/m2 CLR
11:54 -4.8 °C -9.7 °C 34544 hPa SW 38.8 km/h 38.8 km/h 58 % 0 mm 601.0 W/m2 CLR
12:04 -4.5 °C -9.6 °C 34544 hPa SW 23.8 km/h 23.8 km/h 57 % 0 mm 626.0 W/m2 CLR
12:09 -4.5 °C -9.7 °C 34544 hPa SW 38.8 km/h 38.8 km/h 56 % 0 mm 635.0 W/m2 CLR
12:14 -4.2 °C -9.7 °C 34544 hPa WSW 41.7 km/h 41.7 km/h 54 % 0 mm 647.0 W/m2 CLR
12:19 -4.2 °C -9.7 °C 34544 hPa SW 31.1 km/h 31.1 km/h 54 % 0 mm 657.0 W/m2 CLR
12:24 -4.2 °C -10.1 °C 34544 hPa West 38.8 km/h 38.8 km/h 52 % 0 mm 638.0 W/m2 CLR
12:29 -4.2 °C -10.4 °C 34544 hPa SW 44.7 km/h 44.7 km/h 50 % 0 mm 679.0 W/m2 CLR
12:39 -4.2 °C -10.5 °C 34544 hPa West 50.7 km/h 50.7 km/h 49 % 0 mm 475.0 W/m2 CLR
12:44 -4.2 °C -10.7 °C 34544 hPa WSW 53.6 km/h 53.6 km/h 48 % 0 mm 705.0 W/m2 CLR
12:49 -4.2 °C -10.7 °C 34544 hPa WSW 53.6 km/h 53.6 km/h 48 % 0 mm 701.0 W/m2 CLR
12:54 -3.9 °C -10.6 °C 34533.8 hPa SW 35.7 km/h 35.7 km/h 47 % 0 mm 461.0 W/m2 CLR
12:59 -3.6 °C -10.3 °C 34533.8 hPa SSW 29.8 km/h 29.8 km/h 47 % 0 mm 788.0 W/m2 CLR
13:04 -4.2 °C -11.1 °C 34533.8 hPa West 41.7 km/h 41.7 km/h 46 % 0 mm 752.0 W/m2 CLR
13:09 -4.2 °C -11.1 °C 34533.8 hPa WSW 35.7 km/h 35.7 km/h 46 % 0 mm 775.0 W/m2 CLR
13:14 -3.9 °C -11 °C 34533.8 hPa WSW 41.7 km/h 41.7 km/h 45 % 0 mm 735.0 W/m2 CLR
13:19 -3.9 °C -11 °C 34533.8 hPa SW 32.8 km/h 32.8 km/h 45 % 0 mm 738.0 W/m2 CLR
13:24 -3.6 °C -10.9 °C 34533.8 hPa SSW 29.8 km/h 29.8 km/h 44 % 0 mm 747.0 W/m2 CLR
13:29 -3.6 °C -11.1 °C 34533.8 hPa SW 50.7 km/h 50.7 km/h 43 % 0 mm 686.0 W/m2 CLR
13:34 -3.6 °C -10.9 °C 34533.8 hPa SW 35.7 km/h 35.7 km/h 44 % 0 mm 754.0 W/m2 CLR
13:39 -3.6 °C -11.3 °C 34520.3 hPa WSW 41.4 km/h 41.4 km/h 42 % 0 mm 731.0 W/m2 CLR
13:44 -3.6 °C -11.3 °C 34533.8 hPa West 38.8 km/h 38.8 km/h 42 % 0 mm 728.0 W/m2 CLR
13:49 -3.3 °C -11 °C 34520.3 hPa West 41.4 km/h 41.4 km/h 42 % 0 mm 731.0 W/m2 CLR
13:54 -3.6 °C -11.7 °C 34520.3 hPa WNW 41.4 km/h 41.4 km/h 40 % 0 mm 737.0 W/m2 CLR
13:59 -3.6 °C -11.5 °C 34520.3 hPa WSW 41.7 km/h 41.7 km/h 41 % 0 mm 729.0 W/m2 CLR
14:04 -3.3 °C -11.4 °C 34520.3 hPa WSW 41.7 km/h 41.7 km/h 40 % 0 mm 731.0 W/m2 CLR
14:09 -3.3 °C -11.6 °C 34520.3 hPa West 41.7 km/h 41.7 km/h 39 % 0 mm 735.0 W/m2 CLR
14:14 -2.9 °C -11.3 °C 34510.1 hPa West 23.8 km/h 25.9 km/h 39 % 0 mm 751.0 W/m2 CLR
14:19 -2.9 °C -11.3 °C 34510.1 hPa WSW 41.7 km/h 41.7 km/h 39 % 0 mm 628.0 W/m2 CLR
14:24 -2.9 °C -11.2 °C 34510.1 hPa SW 29.8 km/h 29.8 km/h 40 % 0 mm 726.0 W/m2 CLR
14:29 -2.9 °C -11.3 °C 34510.1 hPa West 47.6 km/h 47.6 km/h 39 % 0 mm 722.0 W/m2 CLR
14:34 -2.9 °C -11.2 °C 34510.1 hPa West 38.8 km/h 38.8 km/h 40 % 0 mm 735.0 W/m2 CLR
14:39 -2.9 °C -11.3 °C 34510.1 hPa WSW 15 km/h 15 km/h 39 % 0 mm 714.0 W/m2 CLR
14:44 -2.9 °C -10.9 °C 34510.1 hPa West 32.8 km/h 32.8 km/h 41 % 0 mm 705.0 W/m2 CLR
14:49 -2.9 °C -11.3 °C 34496.6 hPa West 35.7 km/h 35.7 km/h 39 % 0 mm 700.0 W/m2 CLR
14:54 -2.9 °C -11.2 °C 34496.6 hPa WSW 35.7 km/h 35.7 km/h 40 % 0 mm 696.0 W/m2 CLR
14:59 -3.3 °C -11.6 °C 34496.6 hPa WSW 47.6 km/h 47.6 km/h 39 % 0 mm 700.0 W/m2 CLR
15:04 -3.3 °C -11.6 °C 34496.6 hPa West 35.7 km/h 35.7 km/h 39 % 0 mm 666.0 W/m2 CLR
15:10 -2.9 °C -11.6 °C 34496.6 hPa WSW 33.6 km/h 33.6 km/h 38 % 0 mm 726.0 W/m2 CLR
15:15 -3.3 °C -11.8 °C 34496.6 hPa SW 38.8 km/h 38.8 km/h 38 % 0 mm 619.0 W/m2 CLR
15:19 -3.3 °C -11.8 °C 34496.6 hPa SW 41.7 km/h 41.7 km/h 38 % 0 mm 726.0 W/m2 CLR
15:25 -2.9 °C -11.6 °C 34486.4 hPa SW 35.7 km/h 35.7 km/h 38 % 0 mm 640.0 W/m2 CLR
15:30 -2.9 °C -11.3 °C 34486.4 hPa WSW 50.7 km/h 50.7 km/h 39 % 0 mm 554.0 W/m2 CLR
15:35 -2.9 °C -11.6 °C 34486.4 hPa SW 50.7 km/h 50.7 km/h 38 % 0 mm 631.0 W/m2 CLR
15:40 -2.9 °C -11.6 °C 34486.4 hPa West 32.8 km/h 32.8 km/h 38 % 0 mm 598.0 W/m2 CLR
15:45 -2.9 °C -11.8 °C 34486.4 hPa West 38.8 km/h 38.8 km/h 37 % 0 mm 642.0 W/m2 CLR
15:50 -3.3 °C -12.1 °C 34486.4 hPa WSW 35.7 km/h 35.7 km/h 37 % 0 mm 383.0 W/m2 CLR
15:55 -3.6 °C -12.1 °C 34486.4 hPa WSW 29.8 km/h 29.8 km/h 38 % 0 mm 267.0 W/m2 CLR
16:00 -3.6 °C -12.1 °C 34486.4 hPa West 38.8 km/h 38.8 km/h 38 % 0 mm 401.0 W/m2 CLR
16:05 -3.6 °C -11.7 °C 34486.4 hPa West 38.8 km/h 38.8 km/h 40 % 0 mm 295.0 W/m2 CLR
16:10 -3.9 °C -12 °C 34486.4 hPa West 47.6 km/h 47.6 km/h 40 % 0 mm 501.0 W/m2 CLR
16:15 -3.3 °C -11.6 °C 34486.4 hPa SW 25.9 km/h 25.9 km/h 39 % 0 mm 664.0 W/m2 CLR
16:20 -3.3 °C -11.6 °C 34486.4 hPa WSW 44.7 km/h 44.7 km/h 39 % 0 mm 301.0 W/m2 CLR
16:25 -3.3 °C -11.4 °C 34486.4 hPa WSW 35.7 km/h 35.7 km/h 40 % 0 mm 496.0 W/m2 CLR
16:30 -3.3 °C -11.4 °C 34486.4 hPa West 41.7 km/h 41.7 km/h 40 % 0 mm 315.0 W/m2 CLR
16:35 -3.3 °C -11.4 °C 34486.4 hPa West 33.6 km/h 33.6 km/h 40 % 0 mm 589.0 W/m2 CLR
16:40 -3.3 °C -11.8 °C 34486.4 hPa WNW 47.6 km/h 47.6 km/h 38 % 0 mm 504.0 W/m2 CLR
16:45 -3.3 °C -12.1 °C 34486.4 hPa WNW 47.6 km/h 47.6 km/h 37 % 0 mm 459.0 W/m2 CLR
16:50 -3.3 °C -11.6 °C 34486.4 hPa WSW 44.7 km/h 44.7 km/h 39 % 0 mm 469.0 W/m2 CLR
16:55 -3.3 °C -11.8 °C 34486.4 hPa West 41.7 km/h 41.7 km/h 38 % 0 mm 339.0 W/m2 CLR
17:00 -3.3 °C -11.6 °C 34476.3 hPa West 35.7 km/h 35.7 km/h 39 % 0 mm 255.0 W/m2 CLR
17:05 -3.6 °C -11.7 °C 34476.3 hPa West 41.7 km/h 41.7 km/h 40 % 0 mm 193.0 W/m2 CLR
17:10 -3.9 °C -12 °C 34476.3 hPa SW 47.6 km/h 47.6 km/h 40 % 0 mm 287.0 W/m2 CLR
17:15 -3.6 °C -12.1 °C 34476.3 hPa WSW 41.7 km/h 41.7 km/h 38 % 0 mm 206.0 W/m2 CLR
17:20 -3.6 °C -11.7 °C 34476.3 hPa West 38.8 km/h 38.8 km/h 40 % 0 mm 424.0 W/m2 CLR
17:25 -3.3 °C -11.2 °C 34486.4 hPa SW 33.6 km/h 33.6 km/h 41 % 0 mm 475.0 W/m2 CLR
17:30 -2.9 °C -10.9 °C 34486.4 hPa WSW 38.8 km/h 38.8 km/h 41 % 0 mm 452.0 W/m2 CLR
17:35 -3.3 °C -11 °C 34476.3 hPa WSW 41.7 km/h 41.7 km/h 42 % 0 mm 193.0 W/m2 CLR
17:40 -3.6 °C -11.1 °C 34486.4 hPa SW 35.7 km/h 35.7 km/h 43 % 0 mm 262.0 W/m2 CLR
17:45 -3.6 °C -11.1 °C 34486.4 hPa WSW 35.7 km/h 35.7 km/h 43 % 0 mm 176.0 W/m2 CLR
17:50 -3.6 °C -11.1 °C 34486.4 hPa West 32.8 km/h 32.8 km/h 43 % 0 mm 118.0 W/m2 CLR
17:55 -3.9 °C -11 °C 34486.4 hPa SW 28.5 km/h 28.5 km/h 45 % 0 mm 151.0 W/m2 CLR
18:05 -4.2 °C -11.1 °C 34496.6 hPa WSW 38.8 km/h 38.8 km/h 46 % 0 mm 190.0 W/m2 CLR
18:10 -4.2 °C -11.1 °C 34496.6 hPa WSW 50.7 km/h 50.7 km/h 46 % 0 mm 148.0 W/m2 CLR
18:15 -4.2 °C -11.1 °C 34496.6 hPa WSW 50.7 km/h 50.7 km/h 46 % 0 mm 139.0 W/m2 CLR
18:20 -4.2 °C -10.9 °C 34510.1 hPa WSW 50.7 km/h 50.7 km/h 47 % 0 mm 158.0 W/m2 CLR
18:25 -4.2 °C -10.9 °C 34510.1 hPa WSW 50.7 km/h 50.7 km/h 47 % 0 mm 113.0 W/m2 CLR
18:30 -4.2 °C -10.9 °C 34510.1 hPa SW 41.7 km/h 41.7 km/h 47 % 0 mm 107.0 W/m2 CLR
18:35 -4.5 °C -11.3 °C 34520.3 hPa SW 46.7 km/h 46.7 km/h 46 % 0 mm 163.0 W/m2 CLR
18:40 -4.5 °C -11.3 °C 34520.3 hPa SW 38.8 km/h 38.8 km/h 46 % 0 mm 91.0 W/m2 CLR
18:45 -4.5 °C -11.2 °C 34520.3 hPa WSW 44.7 km/h 44.7 km/h 47 % 0 mm 114.0 W/m2 CLR
18:50 -4.5 °C -11.2 °C 34520.3 hPa SW 50.7 km/h 50.7 km/h 47 % 0 mm 84.0 W/m2 CLR
18:55 -4.8 °C -11.3 °C 34520.3 hPa SW 57 km/h 57 km/h 48 % 0 mm 46.0 W/m2 SCT
19:00 -4.8 °C -11.3 °C 34520.3 hPa SW 53.6 km/h 53.6 km/h 48 % 0 mm 26.0 W/m2 BKN
19:05 -4.8 °C -11.1 °C 34520.3 hPa SW 50.7 km/h 50.7 km/h 49 % 0 mm 21.0 W/m2 BKN
19:10 -4.8 °C -11.1 °C 34520.3 hPa WSW 50.7 km/h 50.7 km/h 49 % 0 mm 19.0 W/m2 BKN
19:15 -4.8 °C -11.1 °C 34533.8 hPa WSW 47.6 km/h 47.6 km/h 49 % 0 mm 18.0 W/m2 BKN
19:20 -5.1 °C -11.2 °C 34533.8 hPa WSW 57 km/h 57 km/h 50 % 0 mm 16.0 W/m2 BKN
19:25 -5.1 °C -11.4 °C 34544 hPa SW 44.7 km/h 44.7 km/h 49 % 0 mm 12.0 W/m2 BKN
19:30 -5.1 °C -11.2 °C 34544 hPa WSW 44.7 km/h 44.7 km/h 50 % 0 mm 11.0 W/m2 BKN
19:35 -5.4 °C -11.5 °C 34544 hPa WSW 50.7 km/h 50.7 km/h 50 % 0 mm 7.0 W/m2 BKN
19:40 -5.4 °C -11.3 °C 34544 hPa WSW 35.7 km/h 35.7 km/h 51 % 0 mm 5.0 W/m2 OVC
19:45 -5.4 °C -11.3 °C 34544 hPa SW 29.8 km/h 29.8 km/h 51 % 0 mm 0.0 W/m2 OVC
19:50 -5.4 °C -11.3 °C 34554.1 hPa SSW 29.8 km/h 29.8 km/h 51 % 0 mm 0.0 W/m2 OVC
19:55 -5.4 °C -11.3 °C 34554.1 hPa SSW 33.6 km/h 33.6 km/h 51 % 0 mm 0.0 W/m2 OVC
20:00 -5.4 °C -11.3 °C 34554.1 hPa SW 44.7 km/h 44.7 km/h 51 % 0 mm 0.0 W/m2 CLR
20:05 -5.4 °C -11.2 °C 34554.1 hPa SSW 29.8 km/h 29.8 km/h 52 % 0 mm 0.0 W/m2 CLR
20:10 -5.7 °C -11.4 °C 34554.1 hPa SW 50.7 km/h 50.7 km/h 52 % 0 mm 0.0 W/m2 CLR
20:15 -5.7 °C -11.4 °C 34567.7 hPa SSW 29.8 km/h 29.8 km/h 52 % 0 mm 0.0 W/m2 CLR
20:20 -5.7 °C -11.6 °C 34567.7 hPa SW 41.7 km/h 41.7 km/h 51 % 0 mm 0.0 W/m2 CLR
20:25 -5.7 °C -11.6 °C 34567.7 hPa SW 38.8 km/h 38.8 km/h 51 % 0 mm 0.0 W/m2 CLR
20:30 -5.7 °C -11.8 °C 34567.7 hPa WSW 44.7 km/h 44.7 km/h 50 % 0 mm 0.0 W/m2 CLR
20:35 -5.7 °C -11.8 °C 34567.7 hPa SSW 46.7 km/h 46.7 km/h 50 % 0 mm 0.0 W/m2 CLR
20:40 -5.7 °C -11.8 °C 34577.8 hPa SW 38.8 km/h 38.8 km/h 50 % 0 mm 0.0 W/m2 CLR
20:45 -5.7 °C -11.8 °C 34577.8 hPa WSW 38.8 km/h 38.8 km/h 50 % 0 mm 0.0 W/m2 CLR
20:50 -6.1 °C -12.1 °C 34577.8 hPa SW 38.8 km/h 38.8 km/h 50 % 0 mm 0.0 W/m2 CLR
20:55 -6.1 °C -11.9 °C 34577.8 hPa WSW 50.7 km/h 50.7 km/h 51 % 0 mm 0.0 W/m2 CLR
21:00 -6.1 °C -11.9 °C 34577.8 hPa SW 41.7 km/h 41.7 km/h 51 % 0 mm 0.0 W/m2 CLR
21:05 -6.1 °C -11.7 °C 34577.8 hPa SW 41.7 km/h 41.7 km/h 52 % 0 mm 0.0 W/m2 CLR
21:10 -6.1 °C -11.7 °C 34577.8 hPa SSW 50.7 km/h 50.7 km/h 52 % 0 mm 0.0 W/m2 CLR
21:15 -6.1 °C -11.7 °C 34591.4 hPa SW 50.7 km/h 50.7 km/h 52 % 0 mm 0.0 W/m2 CLR
21:16 -6.1 °C -11.7 °C 34591.4 hPa SW 44.7 km/h 44.7 km/h 52 % 0 mm 0.0 W/m2 CLR
21:21 -6.1 °C -11.7 °C 34591.4 hPa SW 35.7 km/h 35.7 km/h 52 % 0 mm 0.0 W/m2 CLR
21:26 -6.1 °C -11.7 °C 34591.4 hPa SW 32.8 km/h 32.8 km/h 52 % 0 mm 0.0 W/m2 CLR
21:31 -6.1 °C -11.6 °C 34591.4 hPa SW 38.8 km/h 38.8 km/h 53 % 0 mm 0.0 W/m2 CLR
21:37 -6.3 °C -11.7 °C 34591.4 hPa SW 41.7 km/h 41.7 km/h 54 % 0 mm 0.0 W/m2 CLR
21:42 -6.3 °C -11.7 °C 34601.5 hPa SW 38.8 km/h 38.8 km/h 54 % 0 mm 0.0 W/m2 CLR
21:47 -6.3 °C -11.7 °C 34601.5 hPa SSW 32.8 km/h 32.8 km/h 54 % 0 mm 0.0 W/m2 CLR
21:52 -6.3 °C -11.6 °C 34601.5 hPa SSW 36.2 km/h 36.2 km/h 55 % 0 mm 0.0 W/m2 CLR
21:57 -6.3 °C -11.6 °C 34591.4 hPa SSW 36.2 km/h 36.2 km/h 55 % 0 mm 0.0 W/m2 CLR
22:02 -6.3 °C -11.6 °C 34591.4 hPa SSW 47.6 km/h 47.6 km/h 55 % 0 mm 0.0 W/m2 CLR
22:07 -6.3 °C -11.6 °C 34591.4 hPa SSW 38.8 km/h 38.8 km/h 55 % 0 mm 0.0 W/m2 CLR
22:12 -6.3 °C -11.4 °C 34591.4 hPa SSW 41.7 km/h 41.7 km/h 56 % 0 mm 0.0 W/m2 CLR
22:17 -6.7 °C -11.7 °C 34601.5 hPa SW 44.7 km/h 44.7 km/h 56 % 0 mm 0.0 W/m2 CLR
22:22 -6.7 °C -11.8 °C 34601.5 hPa SW 47.6 km/h 47.6 km/h 55 % 0 mm 0.0 W/m2 CLR
22:27 -6.7 °C -11.8 °C 34601.5 hPa SSW 47.6 km/h 47.6 km/h 55 % 0 mm 0.0 W/m2 CLR
22:32 -6.7 °C -11.8 °C 34601.5 hPa SW 51.8 km/h 51.8 km/h 55 % 0 mm 0.0 W/m2 CLR
22:37 -6.7 °C -11.8 °C 34601.5 hPa SSW 47.6 km/h 47.6 km/h 55 % 0 mm 0.0 W/m2 CLR
22:42 -6.7 °C -11.7 °C 34601.5 hPa SW 59.5 km/h 59.5 km/h 56 % 0 mm 0.0 W/m2 CLR
22:47 -6.7 °C -11.6 °C 34601.5 hPa SW 50.7 km/h 50.7 km/h 57 % 0 mm 0.0 W/m2 CLR
22:52 -7 °C -11.8 °C 34601.5 hPa SSW 68.6 km/h 68.6 km/h 57 % 0 mm 0.0 W/m2 CLR
22:57 -7 °C -11.8 °C 34601.5 hPa SW 50.7 km/h 50.7 km/h 57 % 0 mm 0.0 W/m2 CLR
23:02 -7 °C -11.7 °C 34601.5 hPa WSW 38.8 km/h 38.8 km/h 58 % 0 mm 0.0 W/m2 CLR
23:07 -7 °C -11.8 °C 34601.5 hPa SSW 50.7 km/h 50.7 km/h 57 % 0 mm 0.0 W/m2 CLR
23:12 -7 °C -11.8 °C 34611.7 hPa SW 35.7 km/h 35.7 km/h 57 % 0 mm 0.0 W/m2 CLR
23:17 -7 °C -11.8 °C 34611.7 hPa SW 50.7 km/h 50.7 km/h 57 % 0 mm 0.0 W/m2 CLR
23:22 -7 °C -11.8 °C 34611.7 hPa SW 44.1 km/h 44.1 km/h 57 % 0 mm 0.0 W/m2 CLR
23:27 -7 °C -11.7 °C 34601.5 hPa SW 50.7 km/h 50.7 km/h 58 % 0 mm 0.0 W/m2 CLR
23:32 -7.3 °C -12 °C 34611.7 hPa SW 51.8 km/h 51.8 km/h 58 % 0 mm 0.0 W/m2 CLR
23:37 -7.3 °C -12 °C 34601.5 hPa SSW 36.2 km/h 36.2 km/h 58 % 0 mm 0.0 W/m2 CLR
23:39 -7.3 °C -12 °C 34601.5 hPa SSW 47.6 km/h 47.6 km/h 58 % 0 mm 0.0 W/m2 CLR
23:44 -7.3 °C -12 °C 34601.5 hPa SW 38.8 km/h 38.8 km/h 58 % 0 mm 0.0 W/m2 CLR
23:49 -7.3 °C -12 °C 34611.7 hPa SSW 41.7 km/h 41.7 km/h 58 % 0 mm 0.0 W/m2 CLR
23:54 -7.3 °C -12 °C 34601.5 hPa SSW 32.8 km/h 32.8 km/h 58 % 0 mm 0.0 W/m2 CLR
23:59 -7.3 °C -11.8 °C 34601.5 hPa SW 41.7 km/h 41.7 km/h 59 % 0 mm 0.0 W/m2 CLR
Lo Temps de Massalio
Compliments of Weather Underground - 1.25 mb